Location: Big Meadows
(38.5260°N, 78.4400°W)
Time: 18:37:02
(UTC-04:00)

H-2A R/B - Visible Passes

Search period start: 27 April 2017 00:00
Search period end: 07 May 2017 00:00
Orbit: 733 x 838 km, 98.4° (Epoch: 26 April)

Date Brightness Start Highest point End Pass type
(mag) Time Alt. Az. Time Alt. Az. Time Alt. Az.
27 Apr 4.4 00:11:37 14° WNW 00:11:37 14° WNW 00:13:14 10° WNW visible
27 Apr 3.0 21:59:46 28° ENE 22:00:04 28° ENE 22:04:13 10° N visible
27 Apr 3.6 23:40:23 28° WNW 23:40:23 28° WNW 23:43:44 10° NW visible
28 Apr 3.8 21:28:32 14° ENE 21:29:35 15° ENE 21:32:13 10° NNE visible
28 Apr 2.4 23:09:09 56° WNW 23:09:09 56° WNW 23:13:24 10° NNW visible
29 Apr 2.0 22:37:56 64° ENE 22:37:56 64° ENE 22:42:36 10° N visible
30 Apr 4.5 00:18:33 12° WNW 00:18:33 12° WNW 00:19:37 10° WNW visible
30 Apr 2.8 22:06:42 32° ENE 22:07:05 32° ENE 22:11:26 10° N visible
30 Apr 3.7 23:47:19 24° W 23:47:19 24° W 23:50:35 10° NW visible
01 May 3.6 21:35:28 16° E 21:36:34 17° ENE 21:39:40 10° NNE visible
01 May 2.6 23:16:06 50° WNW 23:16:06 50° WNW 23:20:23 10° NNW visible
02 May 1.8 22:44:52 77° ENE 22:44:52 77° ENE 22:49:41 10° N visible
03 May 2.6 22:13:38 37° E 22:14:05 38° ENE 22:18:37 10° N visible
03 May 3.9 23:54:15 21° W 23:54:15 21° W 23:57:22 10° NW visible
04 May 3.5 21:42:25 18° E 21:43:33 20° ENE 21:47:02 10° NNE visible
04 May 2.8 23:23:02 43° W 23:23:02 43° W 23:27:20 10° NNW visible
05 May 1.8 22:51:48 89° S 22:51:49 90° WSW 22:56:45 10° NNW visible
06 May 2.3 22:20:34 42° E 22:21:07 44° ENE 22:25:46 10° N visible
